Sterling, IL

4:01 AM CDT on September 15, 2019 (GMT -0500)
Whiteside County-Bittorf

Weather History for KSQI - August, 2019

Change the Weather History Date:

Sunday, August 25, 2019

  Actual Average Record
Temperature  
Mean Temperature 64 °F -  
Max Temperature 73 °F 78 °F 96 °F (2003)
Min Temperature 55 °F 58 °F 50 °F (2017)
Degree Days  
Heating Degree Days 1    
Growing Degree Days 14 (Base 50)    
Moisture  
Dew Point 58 °F    
Average Humidity 80    
Maximum Humidity 97    
Minimum Humidity 57    
Precipitation  
Precipitation 0.02 in - - ()
Sea Level Pressure  
Sea Level Pressure 29.71 in    
Wind  
Wind Speed 6 mph ()    
Max Wind Speed 12 mph    
Max Gust Speed 17 mph    
Visibility 10.0 miles    
Events Rain    
Averages and records for this station are not official NWS values.
T = Trace of Precipitation, MM = Missing Value Source: Averaged Metar Reports

Daily Weather History Graph

Daily Weather History Graph

Search for Another Location

Airport or City:

Astronomy

Aug. 25, 2019 Rise Set
Actual Time 6:17 AM CDT 7:43 PM CDT
Civil Twilight 5:48 AM CDT 8:12 PM CDT
Nautical Twilight 5:13 AM CDT 8:47 PM CDT
Astronomical Twilight 4:35 AM CDT 9:24 PM CDT
Moon 12:49 AM CDT (8/25) 4:07 PM CDT (8/25)
Length of Visible Light 14h 24m
Length of Day
13h 26m
Waning Crescent, 29% of the Moon is Illuminated
Aug 25
Waning Crescent
Aug 30
New
Sep 5
First Quarter
Sep 13
Full
Sep 21
Last Quarter

Hourly Weather History & Observations

Time (CDT) Temp. Dew Point Humidity Pressure Visibility Wind Dir Wind Speed Gust Speed Precip Events Conditions
12:56 AM 55.0 °F 54.0 °F 96% 29.77 in 10.0 mi East 4.6 mph - N/A   Clear
1:56 AM 55.0 °F 54.0 °F 96% 29.75 in 10.0 mi East 4.6 mph - N/A   Clear
2:56 AM 55.0 °F 54.0 °F 96% 29.74 in 10.0 mi East 4.6 mph - N/A   Clear
3:56 AM 55.9 °F 55.0 °F 97% 29.73 in 10.0 mi East 4.6 mph - N/A   Overcast
4:56 AM 55.0 °F 54.0 °F 96% 29.73 in 10.0 mi Calm Calm - N/A   Mostly Cloudy
5:56 AM 57.0 °F 55.9 °F 96% 29.73 in 10.0 mi East 5.8 mph - N/A   Overcast
6:56 AM 57.0 °F 55.9 °F 96% 29.73 in 10.0 mi East 5.8 mph - N/A   Mostly Cloudy
7:56 AM 59.0 °F 57.0 °F 93% 29.72 in 10.0 mi East 6.9 mph - N/A   Clear
8:27 AM 60.8 °F 57.2 °F 88% 30.11 in 10.0 mi East 6.9 mph - N/A   Partly Cloudy
8:56 AM 64.0 °F 57.9 °F 80% 29.71 in 10.0 mi East 11.5 mph - N/A   Clear
9:56 AM 68.0 °F 59.0 °F 73% 29.71 in 10.0 mi ESE 9.2 mph - N/A   Clear
10:19 AM 69.8 °F 59.0 °F 68% 30.10 in 10.0 mi ESE 6.9 mph - N/A   Partly Cloudy
10:56 AM 69.1 °F 59.0 °F 70% 29.70 in 10.0 mi ESE 9.2 mph - N/A   Clear
11:56 AM 72.0 °F 60.1 °F 66% 29.69 in 10.0 mi ESE 10.4 mph - N/A   Clear
12:38 PM 73.4 °F 57.2 °F 57% 30.06 in 10.0 mi ESE 10.4 mph - N/A   Partly Cloudy
12:56 PM 73.0 °F 59.0 °F 61% 29.66 in 10.0 mi ESE 8.1 mph - N/A   Partly Cloudy
1:56 PM 72.0 °F 57.0 °F 59% 29.65 in 10.0 mi ESE 9.2 mph 17.3 mph 0.00 in   Mostly Cloudy
2:56 PM 73.0 °F 57.9 °F 59% 29.62 in 10.0 mi East 9.2 mph - N/A   Mostly Cloudy
3:56 PM 73.0 °F 59.0 °F 61% 29.61 in 10.0 mi East 8.1 mph - N/A   Overcast
4:56 PM 71.1 °F 59.0 °F 66% 29.60 in 10.0 mi East 9.2 mph - N/A   Overcast
5:56 PM 69.1 °F 61.0 °F 75% 29.59 in 10.0 mi ESE 8.1 mph - 0.00 in Rain Light Rain
6:56 PM 66.9 °F 60.1 °F 79% 29.58 in 10.0 mi ENE 8.1 mph - 0.00 in   Overcast
7:56 PM 66.9 °F 60.1 °F 79% 29.57 in 10.0 mi NE 8.1 mph - N/A   Overcast
8:56 PM 64.9 °F 62.1 °F 90% 29.58 in 10.0 mi Calm Calm - 0.01 in Rain Light Rain
9:56 PM 64.9 °F 62.1 °F 90% 29.55 in 10.0 mi ENE 5.8 mph - 0.01 in Rain Light Rain
10:56 PM 64.9 °F 61.0 °F 87% 29.54 in 10.0 mi East 6.9 mph - 0.00 in   Overcast
11:56 PM 64.9 °F 61.0 °F 87% 29.52 in 10.0 mi East 5.8 mph - N/A   Overcast